Location: Poughquag
(41.6090°N, 73.6820°W)
Time: 12:47:27
(UTC-04:00)

A-11 Canister half - Pass Details

Date: 01 June 2020
Orbit: 1527 x 1682 km, 47.3° (Epoch: 06 July)

Event Time Altitude Azimuth Distance (km) Brightness Sun altitude
Rises 08:04:51 0° 239° (WSW) 4,670 11.0 27.7°
Reaches altitude 10° 08:07:52 10° 239° (WSW) 3,688 10.6 28.3°
Maximum altitude 08:17:11 87° 152° (SSE) 1,541 9.6 30.0°
Drops below altitude 10° 08:26:41 10° 65° (ENE) 3,755 12.3 31.8°
Sets 08:29:47 0° 65° (ENE) 4,759 12.5 32.4°
